Location: Bathurst
(33.4193°S, 149.5775°E)
Time: 22:15:12
(UTC+10:00)

Vanguard 3 - Pass Details

Date: 30 June 2021
Orbit: 508 x 3261 km, 33.4° (Epoch: 25 July)

Event Time Altitude Azimuth Distance (km) Brightness Sun altitude
Rises 19:33:47 0° 258° (WSW) 6,495 12.8 -30.3°
Reaches altitude 10° 19:37:41 10° 259° (W) 5,723 12.2 -31.1°
Maximum altitude 19:56:51 78° 341° (NNW) 3,308 10.0 -35.1°
Enters shadow 20:04:45 47° 56° (NE) 3,787 10.0 -36.7°
